Regional Weather Roundup
Issued by NWS

Home | Current Version | Previous Version | Text Only | Print | Product List | Glossary On
Versions: 1 2 3 4 5 6 7 8 9 10 11 12 13 14 15 16 17 18 19 20 21 22 23 24 25 26 27 28 29 30 31 32 33 34 35 36 37 38 39 40 41 42 43 44 45 46 47 48 49 50
000
ASUS45 KREV 201310
RWRNV
NEVADA REGIONAL WEATHER ROUNDUP
NATIONAL WEATHER SERVICE RENO NV
600 AM PDT FRI APR 20 2018

NOTE: "FAIR" INDICATES FEW OR NO CLOUDS BELOW 12,000 FEET WITH NO
SIGNIFICANT WEATHER AND/OR OBSTRUCTIONS TO VISIBILITY.

NVZ001-003-004-201400-
WESTERN NEVADA

CITY           SKY/WX    TMP DP  RH WIND       PRES   REMARKS
RENO           PTCLDY    35  29  78 CALM      30.22R
CARSON CITY    FAIR      32  28  86 CALM      30.23R
MINDEN         FAIR      27  25  93 CALM      30.24R
SLIDE MTN        N/A     27  25  93 N14         N/A
FALLON         CLEAR     32  30  92 VRB6      30.18R
LOVELOCK       CLEAR     30  27  88 NE3       30.16R
HAWTHORNE      CLEAR     41  32  70 NW9       30.17R
$$

NVZ002-CAZ072-073-201400-
NORTHERN AND CENTRAL SIERRA

CITY           SKY/WX    TMP DP  RH WIND       PRES   REMARKS
S. LAKE TAHOE  CLEAR     27  25  92 S3        30.22R
TRUCKEE        FOG       23  23 100 CALM      30.23S VSB 1/4
SQUAW VLY 8000   N/A     30  28  93 E5          N/A
BLUE CANYON    CLEAR     42  27  55 NE5       30.19R
MAMMOTH LAKES  FAIR      29  24  80 CALM      30.21S
BRIDGEPORT     FAIR      31  24  75 CALM      30.19R
$$

NVZ030-031-036-201400-
NORTHERN NEVADA

CITY           SKY/WX    TMP DP  RH WIND       PRES   REMARKS
ELKO           CLEAR     38  26  62 W12       30.06R
WINNEMUCCA     CLEAR     37  28  70 CALM      30.15R
WENDOVER       MOCLDY    53  23  31 N29G40    29.85
$$

NVZ035-037-201400-
CENTRAL NEVADA

CITY           SKY/WX    TMP DP  RH WIND       PRES   REMARKS
ELY            PTCLDY    38  22  52 NW9       29.95R
EUREKA           N/A     26  22  84 CALM      30.08R
$$

NVZ013-014-201400-
SOUTH CENTRAL NEVADA

CITY           SKY/WX    TMP DP  RH WIND       PRES   REMARKS
TONOPAH        CLEAR     39  33  79 NW22G30   30.08R
$$

NVZ017-020-022-201400-
SOUTHERN NEVADA

CITY           SKY/WX    TMP DP  RH WIND       PRES   REMARKS
LAS VEGAS      PTCLDY    54  36  50 VRB5      29.94R
N. LAS VEGAS   PTCLDY    55  34  45 N20G28    29.91R
NELLIS AFB     PTCLDY    58  34  40 W26G36    29.91R
HENDERSON      CLEAR     47  36  65 S6        29.96R
MERCURY        CLEAR     41  32  70 CALM      29.99R
$$



USA.gov is the U.S. government's official web portal to all federal, state and local government web resources and services.